Flag for Cuba Weather past 2 weeks in Santiago de Cuba, Cuba

82 °F

Scattered clouds.

Feels Like: 85 °F
Forecast: 69 / 85 °F
Wind: 6 mph from North

Location: Santiago De Cuba - Oriente

Current Time: Nov 30, 2015 at 12:02:39 PM

Latest Report: Nov 30, 2015 at 10:50 AM

Visibility: N/A

Pressure: 29.92 "Hg

Humidity: 58%

Dew point: 66 °F

Location of Santiago de CubaLocation

Historic Weather in Santiago de Cuba — Graph


Santiago de Cuba temperature yesterday

Maximum temperature yesterday: 82 °F (at 10:51 AM)
Minimum temperature yesterday: 70 °F (at 1:50 AM)
Average temperature yesterday: 76 °F

Past Weeks' High & Low Weather Summary

High88 °F (Nov 15, 11:50 AM)100% (Nov 22, 10:51 PM)30.04 "Hg (Nov 22, 10:51 PM)
Low70 °F (Nov 22, 2:51 AM)46% (Nov 21, 10:50 AM)29.83 "Hg (Nov 20, 2:50 PM)
Average78 °F73%29.93 "Hg
* Reported Nov 15 10:51 AM — Nov 30 10:50 AM, Santiago de Cuba, Weather by CustomWeather, © 2015

Note: Actual official high and low records may vary slightly from our data, if they occured in-between our weather recording intervals... More about our weather records


Santiago de Cuba weather history for previous 24 hours

Time TempWeatherWind HumidityBarometerVisibility
10:50 AM
Mon, Nov 30
82 °FScattered clouds.6 mph58%29.92 "HgN/A
9:51 AM79 °FPartly sunny.8 mph65%29.95 "Hg6 mi
8:51 AM75 °FPartly sunny.7 mph78%29.95 "Hg6 mi
7:50 AM75 °FScattered clouds.8 mph78%29.92 "HgN/A
6:50 AM72 °FScattered clouds.7 mph88%29.92 "HgN/A
5:51 AM72 °FPassing clouds.7 mph88%29.89 "Hg6 mi
4:51 AM72 °FPassing clouds.6 mph88%29.86 "Hg6 mi
3:50 AM72 °FPassing clouds.8 mph88%29.86 "Hg6 mi
2:51 AM72 °FPassing clouds.7 mph88%29.86 "Hg6 mi
1:51 AM72 °FPassing clouds.7 mph88%29.86 "Hg6 mi
12:51 AM73 °FPassing clouds.6 mph78%29.89 "Hg6 mi
11:50 PM
Sun, Nov 29
73 °FPassing clouds.7 mph78%29.89 "Hg6 mi
10:50 PM73 °FPassing clouds.8 mph78%29.89 "Hg6 mi
9:50 PM73 °FPassing clouds.6 mph78%29.92 "Hg6 mi
8:50 PM73 °FPassing clouds.6 mph78%29.89 "Hg6 mi
7:50 PM75 °FPassing clouds.5 mph69%29.89 "Hg6 mi
6:50 PM77 °FPassing clouds.2 mph65%29.86 "Hg6 mi
5:50 PM81 °FPassing clouds.3 mph58%29.86 "Hg6 mi
4:50 PM82 °FScattered clouds.5 mph51%29.86 "Hg6 mi
3:51 PM82 °FScattered clouds.3 mph51%29.86 "Hg6 mi
2:50 PM82 °FScattered clouds.6 mph55%29.86 "Hg6 mi
1:50 PM82 °FScattered clouds.7 mph58%29.86 "Hg6 mi
12:51 PM82 °FScattered clouds.7 mph51%29.89 "Hg6 mi
Weather by CustomWeather, © 2015

See weather overviewHow to use our weather pages